SCP
-0 -0 0 -0 -0 -0 0 0 0 -0 0 0 0 0 0 0 0 0 0 0 0 0 0 0 0 0 0 0 0 0 0 0 0 0 0 0 0 0 0 0 0 0 0 0
0 0 0 -0 -0 -0 -0 -0 -0 -0 0 0 0 0 0 0 0 0 0 0 0 0 0 0 0 0 0 0 0 0 0 0 0 0 0 0 0 0 0 0 0 0 0 0
0 0 0 0 -0 0 0 -0 -0 0 0 0 0 0 0 0 0 0 0 0 0 0 0 0 0 0 0 0 0 0 0 0 0 0 0 0 0 0 0 0 0 0 0 0
0 0 0 0 0 0 0 0 0 0 0 0 0 0 0 0 0 0 0 0 0 0 0 0 0 0 0 0 0 0 0 0 -0 -0 0 0 0 0 0 0 0 0 0 0
0 0 0 0 0 0 0 0 0 0 0 0 0 0 0 0 0 0 0 0 0 0 0 0 0 0 0 0 0 0 0 0 -0 -0 -0 0 0 0 0 0 0 0 0 0
0 0 0 0 -0 0 0 0 0 0 0 0 0 0 0 0 0 0 0 0 0 0 0 0 0 0 0 0 0 0 0 0 0 0 0 0 0 0 0 0 0 0 0 0
0 0 0 0 -0 0 0 0 0 0 0 0 0 0 0 0 0 0 0 0 0 0 0 0 0 0 -0 -0 -0 0 0 0 0 0 0 0 0 0 0 0 0 0 0 0
0 0 0 -0 0 0 0 0 0 0 0 0 0 0 0 0 0 -0 -0 -0 -0 -0 -0 -0 -0 -0 -0 -0 0 0 0 0 0 0 0 0 0 0 0 0 0 0 0 0
0 0 0 0 0 0 0 0 0 0 0 0 0 0 0 0 -0 -0 -0 -0 -0 -0 -0 -0 -0 -0 -0 0 0 0 0 0 0 0 0 0 0 0 0 0 0 0 0 0
0 0 0 0 0 0 0 0 0 0 0 -0 0 0 -0 -0 -0 -0 -0 -0 -0 -0 -0 -0 -0 0 0 0 0 0 0 0 0 0 0 0 0 0 0 0 0 0 0 0
0 0 0 0 0 0 0 0 0 -0 -0 -0 -0 -0 -0 -0 -0 -0 -0 -0 -0 -0 0 0 0 0 0 0 0 0 0 0 0 0 0 0 0 0 0 0 0 0 0 0
0 0 0 0 0 -0 -0 0 0 0 -0 -0 -0 -0 -0 -0 -0 -0 -0 0 0 0 0 0 0 0 0 0 0 0 0 0 0 0 0 0 0 0 0 0 0 0 0 0
0 0 0 -0 -0 -0 0 -0 -0 -0 -0 -0 -0 -0 -0 -0 0 0 0 0 0 0 0 0 0 0 0 0 0 0 0 0 0 0 0 0 0 0 0 0 0 0 0 0
0 0 -0 0 0 0 0 0 -0 -0 -0 0 0 0 0 0 0 0 0 -0 -0 0 0 0 0 0 0 0 0 0 0 0 0 0 0 0 0 0 0 0 0 0 0 0
-0 -0 0 -0 0 0 -0 -0 0 0 0 0 0 0 0 0 0 0 0 0 0 0 0 0 0 0 0 0 0 0 0 0 0 0 0 0 0 0 0 0 0 -0 0 0
0 0 0 0 0 0 0 0 0 0 0 0 0 0 0 -0 -0 0 0 0 0 0 0 0 0 0 0 0 0 0 0 0 -0 -0 -0 -0 -0 -0 -0 -0 -0 -0 -0 -0
0 0 0 0 0 0 0 0 0 0 0 0 -0 -0 -0 -0 0 0 0 0 0 0 0 0 0 0 0 0 -0 -0 -0 -0 -0 -0 -0 -0 -0 -0 -0 -0 -0 -0 -0 -0
0 0 0 0 0 0 0 0 0 0 0 -0 0 0 0 0 0 0 0 -0 -0 0 0 0 -0 -0 -0 -0 -0 -0 -0 -0 -0 -0 -0 -0 -0 -0 -0 -0 -0 -0 -0 -0
0 0 0 0 0 0 0 0 0 0 0 0 0 0 0 0 0 0 0 0 0 0 0 -0 -0 -0 -0 -0 -0 -0 -0 -0 -0 -0 -0 -0 -0 -0 -0 -0 -0 -0 -0 -0
0 0 0 0 0 0 0 0 0 0 0 0 0 0 0 0 0 0 0 0 0 -0 -0 -0 -0 0 -0 0 0 -0 -0 -0 -0 -0 -0 -0 -0 -0 -0 -0 -0 -0 0 0
0 0 0 0 0 0 0 0 0 0 0 0 0 0 0 0 0 0 0 0 0 -0 -0 -0 0 0 0 0 -0 -0 -0 -0 -0 -0 -0 -0 -0 -0 0 0 0 0 0 0
0 0 0 0 0 0 0 0 0 0 0 0 0 0 0 0 0 0 0 0 -0 0 0 0 0 0 0 0 0 0 0 0 0 0 0 0 0 0 0 0 0 0 0 0
0 0 0 0 0 0 0 0 0 0 0 0 0 0 0 0 0 0 0 0 0 0 0 0 0 0 0 0 0 0 0 0 0 0 0 0 0 0 0 0 0 0 0 0
0 0 0 0 0 0 0 0 0 0 0 0 0 0 0 0 0 0 0 0 0 0 0 0 0 0 0 0 0 0 0 0 0 0 0 0 0 0 0 0 0 0 0 0
0 0 0 0 0 0 0 0 0 0 0 0 0 0 0 0 0 0 0 0 0 0 0 0 0 0 0 0 0 0 0 0 0 0 0 0 0 0 0 0 0 0 0 0
0 0 0 0 0 0 0 0 0 0 0 0 0 0 0 0 0 0 0 0 0 0 0 0 0 0 0 0 0 0 0 0 0 0 0 0 0 0 0 0 0 0 0 0
0 0 0 0 0 0 0 0 0 0 0 0 0 0 0 0 0 0 0 0 0 0 0 0 0 0 0 0 0 0 0 0 0 0 0 0 0 0 0 0 0 0 0 0
Wind_Speed_500mb
35 28 12 19 33 35 18 21 12 14 12 21 20 15 18 27 45 49 46 47 48 52 48 41 44 38 34 28 25 27 33 40 42 48 53 57 46 34 27 24 32 37 34 34
8 7 13 37 45 34 40 33 22 21 16 23 26 33 37 36 44 52 47 51 52 54 52 50 51 48 47 45 48 45 60 64 64 58 43 30 28 31 30 27 26 26 29 27
12 27 27 3 42 21 15 34 22 21 12 19 31 32 38 44 49 58 49 52 60 59 57 53 62 63 67 70 71 63 59 52 46 37 28 19 18 21 22 22 22 23 27 31
10 18 10 6 32 21 20 43 43 31 20 11 20 55 77 49 57 58 59 57 69 67 67 65 71 79 70 63 62 55 47 37 29 14 8 8 11 18 22 20 22 25 28 33
8 9 4 14 37 19 14 25 44 39 28 19 22 69 67 70 72 74 73 77 80 74 67 66 64 64 62 52 42 31 26 15 4 4 2 3 11 18 20 20 25 31 36 40
9 10 16 15 52 61 6 32 54 50 36 31 25 36 18 62 77 80 79 75 74 70 65 58 52 48 43 36 26 16 8 4 1 2 4 8 11 15 22 29 31 35 40 42
14 7 8 41 66 36 15 15 59 51 42 52 32 25 36 65 75 73 69 63 59 58 53 49 38 28 28 21 22 21 18 13 11 10 9 8 12 17 23 29 33 36 40 42
12 11 14 75 29 18 15 32 33 45 50 58 61 71 73 73 72 67 64 57 53 53 51 46 40 33 35 34 34 27 23 19 16 14 13 13 16 20 25 29 33 37 42 43
12 7 19 40 25 39 35 30 44 46 47 59 71 73 77 78 75 73 70 67 64 61 58 55 47 42 38 41 32 27 21 21 20 20 21 21 22 24 26 30 33 34 37 40
4 10 19 43 43 47 43 41 42 46 48 55 62 62 68 70 70 69 66 65 60 56 59 58 50 45 44 36 32 27 25 23 22 21 22 22 24 25 28 30 33 39 44 48
6 12 13 36 41 32 34 39 47 51 56 59 65 66 64 66 65 63 60 57 53 54 53 52 44 42 40 38 35 33 31 31 32 32 31 31 32 34 36 39 44 49 53 57
5 8 4 14 25 26 33 39 41 48 55 57 58 58 56 59 55 53 53 50 51 52 50 50 46 44 43 42 40 37 36 39 41 41 42 43 43 42 43 45 49 51 53 58
4 3 3 9 24 25 33 37 42 46 48 48 48 47 48 52 51 50 51 49 50 49 47 45 43 43 46 45 43 40 41 42 43 44 47 51 53 55 57 51 50 52 56 60
6 6 5 3 9 23 30 35 37 39 40 41 40 40 41 45 45 50 54 51 45 43 44 43 41 44 46 44 43 43 44 44 48 51 51 51 52 53 57 62 65 63 58 65
7 11 18 19 20 23 25 26 29 35 35 36 36 39 38 39 43 46 43 39 36 39 43 43 44 48 47 46 46 46 47 48 48 47 49 51 54 57 61 64 68 72 76 75
19 21 20 21 25 25 23 25 29 33 31 35 37 39 39 40 41 41 41 40 38 46 45 43 43 46 44 44 45 46 48 50 53 56 57 59 62 66 69 73 77 80 82 84
29 24 23 24 24 24 23 25 27 28 30 30 35 35 33 33 35 38 40 38 37 37 40 43 48 46 44 47 51 55 56 56 59 60 64 69 72 73 74 75 77 80 83 84
19 24 21 22 25 22 24 25 25 26 27 29 28 25 25 26 35 36 34 33 34 39 43 46 46 45 49 52 55 55 57 61 64 66 67 67 68 71 75 78 82 86 89 91
27 26 28 25 22 18 21 22 21 21 26 24 21 22 25 30 33 33 31 30 35 39 45 44 43 44 48 52 55 57 58 59 60 62 65 68 71 74 78 82 85 88 91 94
36 33 30 25 24 20 21 23 22 21 24 21 21 24 26 29 30 27 25 29 37 39 39 38 40 44 48 50 50 51 54 58 62 65 67 70 75 78 81 85 89 92 94 93
34 31 26 22 23 22 21 22 18 18 23 22 18 20 22 25 24 24 25 27 32 33 37 38 40 43 45 46 49 52 56 60 64 69 72 74 78 83 86 87 88 89 89 86
34 31 29 27 25 26 26 25 21 20 20 18 18 22 21 22 21 20 24 30 33 33 35 35 37 38 41 45 49 54 58 62 64 66 72 78 80 82 84 86 88 88 87 84
33 30 27 25 21 19 21 21 20 18 17 19 19 18 15 16 17 19 23 26 27 28 29 30 34 39 43 48 52 56 58 62 68 74 76 78 80 82 84 85 87 87 86 80
32 30 26 24 22 20 19 22 21 20 18 17 15 14 14 15 17 21 24 24 24 24 26 31 36 41 44 49 53 58 65 70 73 75 78 80 81 83 84 86 88 89 84 75
31 28 26 25 25 24 22 23 22 20 17 14 12 11 12 14 14 16 17 17 18 19 23 28 34 40 47 53 58 62 65 69 74 78 81 83 85 86 86 87 88 86 79 67
31 28 27 25 22 22 22 22 21 20 18 13 9 7 8 8 9 11 12 13 15 21 27 33 39 44 48 52 57 63 68 72 75 78 83 86 89 91 91 88 86 83 76 63
33 28 26 26 25 23 21 19 18 15 13 8 4 3 3 4 7 9 9 11 15 21 27 33 39 44 50 55 61 66 70 74 77 81 86 92 95 95 94 90 85 80 74 61
Wind_Direction_500mb
302 288 295 356 17 24 20 8 38 348 11 354 2 43 60 84 94 98 107 122 142 150 145 150 148 148 157 150 160 177 167 161 150 146 145 140 151 144 163 179 205 231 233 235
297 299 348 30 12 18 26 6 15 10 44 353 4 60 64 70 89 88 92 112 118 120 123 126 125 123 113 126 135 130 127 125 127 126 128 135 152 173 191 209 212 232 243 252
294 329 326 35 10 354 15 28 354 20 351 347 35 44 50 61 78 83 85 98 113 111 113 118 110 109 109 111 110 118 116 113 116 133 146 160 180 191 192 203 225 242 254 261
287 310 57 55 15 331 330 31 12 1 3 18 41 56 48 58 81 87 95 98 104 106 107 112 115 117 121 123 125 127 131 137 135 131 117 159 188 195 205 226 246 260 271 276
333 318 196 24 357 337 339 19 8 4 15 44 69 71 44 52 77 86 95 99 101 102 105 109 111 112 117 121 120 120 120 122 102 41 53 216 225 213 229 256 277 281 285 285
331 354 14 6 337 335 288 27 350 359 17 28 79 68 33 57 87 91 96 101 103 104 104 105 107 113 117 114 111 111 100 85 135 212 223 227 241 257 270 279 285 293 297 297
347 360 47 355 335 326 44 333 327 3 26 48 59 61 70 86 86 89 92 93 102 107 105 102 102 109 104 100 94 75 65 57 51 43 24 345 320 310 306 301 303 304 301 301
340 10 1 355 353 47 313 321 5 29 43 61 69 76 83 86 86 87 90 94 95 99 96 92 89 87 84 80 73 68 62 53 47 36 19 357 340 328 317 314 311 309 306 304
21 17 339 358 2 22 44 51 41 47 58 73 75 76 81 82 83 86 87 88 88 88 88 84 80 77 76 68 60 52 44 37 24 13 1 350 342 333 326 322 320 318 316 316
228 3 1 23 43 51 55 56 64 70 72 78 81 82 84 85 84 84 85 83 83 82 79 73 67 63 61 57 49 37 30 26 23 15 12 8 8 3 356 352 346 340 334 329
74 4 25 28 23 30 53 68 70 75 79 77 81 79 81 80 77 77 76 73 70 67 65 63 57 56 55 51 46 41 38 37 33 28 23 17 11 5 357 354 349 344 339 333
76 340 6 2 9 38 60 66 77 84 82 80 80 82 83 80 78 75 72 69 66 65 63 60 54 52 51 47 42 36 31 27 22 15 8 1 355 353 352 342 336 331 326 324
74 356 55 30 34 59 73 78 85 86 83 81 78 79 81 83 79 78 75 71 65 62 59 56 52 48 45 38 32 25 23 18 12 4 359 354 350 346 337 334 339 335 333 330
198 158 87 110 75 80 84 85 85 85 84 80 78 79 84 85 84 76 69 65 64 63 61 57 53 48 43 35 28 22 19 13 9 6 3 359 356 352 349 347 343 338 337 337
151 143 130 123 121 114 104 103 99 88 84 85 83 83 85 82 76 72 72 69 65 60 57 51 46 42 35 27 21 17 15 14 12 9 6 3 1 358 356 353 351 349 346 343
132 132 129 129 125 123 119 104 93 88 87 89 88 85 80 78 79 77 71 64 54 50 47 42 40 39 31 25 24 21 19 16 13 12 9 7 6 4 0 358 355 353 351 349
151 141 146 140 135 124 111 97 90 89 86 88 84 80 76 72 71 66 60 54 50 50 49 42 40 34 27 23 22 21 19 17 16 14 12 10 7 4 1 357 355 353 351 350
160 154 155 143 133 122 109 102 98 94 89 84 87 89 85 76 69 66 62 58 52 47 43 41 37 27 24 22 22 20 17 15 14 12 11 9 5 3 360 357 354 351 349 347
153 151 144 142 131 124 113 106 102 98 93 92 99 92 82 75 70 66 59 50 46 43 41 34 27 21 22 21 19 17 16 15 14 11 9 6 4 1 357 353 350 347 345 342
152 153 150 146 134 128 126 114 104 101 97 92 81 78 76 72 65 56 48 38 38 38 35 30 23 22 21 19 17 17 15 13 11 8 4 2 359 356 353 350 347 344 340 337
152 147 147 146 143 138 128 116 112 113 108 105 101 93 82 77 70 58 48 40 43 38 34 26 18 19 20 19 16 14 12 9 5 2 359 355 353 352 349 345 341 339 336 334
158 155 154 151 149 145 136 127 123 113 112 112 98 84 78 74 64 48 40 39 38 31 26 19 18 21 18 14 12 10 6 3 359 355 355 353 349 345 343 342 341 339 336 335
159 158 154 147 146 141 132 126 124 123 120 106 96 90 80 68 57 48 42 42 36 25 21 22 23 19 15 11 8 4 359 355 355 353 349 346 344 341 340 340 340 339 337 336
166 161 159 154 152 148 147 145 141 134 128 122 114 98 79 62 47 41 38 33 25 19 26 24 19 14 9 5 0 357 356 354 349 346 344 341 339 338 338 338 340 341 338 334
170 169 167 166 164 161 162 153 146 144 139 129 113 89 64 47 38 33 28 22 25 31 25 19 13 8 4 359 357 355 353 351 349 345 343 341 339 338 337 339 339 337 335 333
175 174 171 165 166 169 166 160 158 153 146 141 124 94 66 55 42 28 22 29 31 25 18 12 6 1 358 356 355 355 354 352 349 346 343 341 340 339 337 335 333 334 333 330
180 179 177 174 174 173 170 166 164 162 150 138 114 74 62 32 16 8 21 27 22 14 9 3 358 356 357 356 354 352 350 348 347 344 343 341 339 335 332 330 328 330 331 327
Wind_Speed_850mb
35 28 12 19 33 35 18 21 12 14 12 21 20 15 18 27 45 49 46 47 48 52 48 41 44 38 34 28 25 27 33 40 42 48 53 57 46 34 27 24 32 37 34 34
8 7 13 37 45 34 40 33 22 21 16 23 26 33 37 36 44 52 47 51 52 54 52 50 51 48 47 45 48 45 60 64 64 58 43 30 28 31 30 27 26 26 29 27
12 27 27 3 42 21 15 34 22 21 12 19 31 32 38 44 49 58 49 52 60 59 57 53 62 63 67 70 71 63 59 52 46 37 28 19 18 21 22 22 22 23 27 31
10 18 10 6 32 21 20 43 43 31 20 11 20 55 77 49 57 58 59 57 69 67 67 65 71 79 70 63 62 55 47 37 29 14 8 8 11 18 22 20 22 25 28 33
8 9 4 14 37 19 14 25 44 39 28 19 22 69 67 70 72 74 73 77 80 74 67 66 64 64 62 52 42 31 26 15 4 4 2 3 11 18 20 20 25 31 36 40
9 10 16 15 52 61 6 32 54 50 36 31 25 36 18 62 77 80 79 75 74 70 65 58 52 48 43 36 26 16 8 4 1 2 4 8 11 15 22 29 31 35 40 42
14 7 8 41 66 36 15 15 59 51 42 52 32 25 36 65 75 73 69 63 59 58 53 49 38 28 28 21 22 21 18 13 11 10 9 8 12 17 23 29 33 36 40 42
12 11 14 75 29 18 15 32 33 45 50 58 61 71 73 73 72 67 64 57 53 53 51 46 40 33 35 34 34 27 23 19 16 14 13 13 16 20 25 29 33 37 42 43
12 7 19 40 25 39 35 30 44 46 47 59 71 73 77 78 75 73 70 67 64 61 58 55 47 42 38 41 32 27 21 21 20 20 21 21 22 24 26 30 33 34 37 40
4 10 19 43 43 47 43 41 42 46 48 55 62 62 68 70 70 69 66 65 60 56 59 58 50 45 44 36 32 27 25 23 22 21 22 22 24 25 28 30 33 39 44 48
6 12 13 36 41 32 34 39 47 51 56 59 65 66 64 66 65 63 60 57 53 54 53 52 44 42 40 38 35 33 31 31 32 32 31 31 32 34 36 39 44 49 53 57
5 8 4 14 25 26 33 39 41 48 55 57 58 58 56 59 55 53 53 50 51 52 50 50 46 44 43 42 40 37 36 39 41 41 42 43 43 42 43 45 49 51 53 58
4 3 3 9 24 25 33 37 42 46 48 48 48 47 48 52 51 50 51 49 50 49 47 45 43 43 46 45 43 40 41 42 43 44 47 51 53 55 57 51 50 52 56 60
6 6 5 3 9 23 30 35 37 39 40 41 40 40 41 45 45 50 54 51 45 43 44 43 41 44 46 44 43 43 44 44 48 51 51 51 52 53 57 62 65 63 58 65
7 11 18 19 20 23 25 26 29 35 35 36 36 39 38 39 43 46 43 39 36 39 43 43 44 48 47 46 46 46 47 48 48 47 49 51 54 57 61 64 68 72 76 75
19 21 20 21 25 25 23 25 29 33 31 35 37 39 39 40 41 41 41 40 38 46 45 43 43 46 44 44 45 46 48 50 53 56 57 59 62 66 69 73 77 80 82 84
29 24 23 24 24 24 23 25 27 28 30 30 35 35 33 33 35 38 40 38 37 37 40 43 48 46 44 47 51 55 56 56 59 60 64 69 72 73 74 75 77 80 83 84
19 24 21 22 25 22 24 25 25 26 27 29 28 25 25 26 35 36 34 33 34 39 43 46 46 45 49 52 55 55 57 61 64 66 67 67 68 71 75 78 82 86 89 91
27 26 28 25 22 18 21 22 21 21 26 24 21 22 25 30 33 33 31 30 35 39 45 44 43 44 48 52 55 57 58 59 60 62 65 68 71 74 78 82 85 88 91 94
36 33 30 25 24 20 21 23 22 21 24 21 21 24 26 29 30 27 25 29 37 39 39 38 40 44 48 50 50 51 54 58 62 65 67 70 75 78 81 85 89 92 94 93
34 31 26 22 23 22 21 22 18 18 23 22 18 20 22 25 24 24 25 27 32 33 37 38 40 43 45 46 49 52 56 60 64 69 72 74 78 83 86 87 88 89 89 86
34 31 29 27 25 26 26 25 21 20 20 18 18 22 21 22 21 20 24 30 33 33 35 35 37 38 41 45 49 54 58 62 64 66 72 78 80 82 84 86 88 88 87 84
33 30 27 25 21 19 21 21 20 18 17 19 19 18 15 16 17 19 23 26 27 28 29 30 34 39 43 48 52 56 58 62 68 74 76 78 80 82 84 85 87 87 86 80
32 30 26 24 22 20 19 22 21 20 18 17 15 14 14 15 17 21 24 24 24 24 26 31 36 41 44 49 53 58 65 70 73 75 78 80 81 83 84 86 88 89 84 75
31 28 26 25 25 24 22 23 22 20 17 14 12 11 12 14 14 16 17 17 18 19 23 28 34 40 47 53 58 62 65 69 74 78 81 83 85 86 86 87 88 86 79 67
31 28 27 25 22 22 22 22 21 20 18 13 9 7 8 8 9 11 12 13 15 21 27 33 39 44 48 52 57 63 68 72 75 78 83 86 89 91 91 88 86 83 76 63
33 28 26 26 25 23 21 19 18 15 13 8 4 3 3 4 7 9 9 11 15 21 27 33 39 44 50 55 61 66 70 74 77 81 86 92 95 95 94 90 85 80 74 61
Wind_Direction_850mb
302 288 295 356 17 24 20 8 38 348 11 354 2 43 60 84 94 98 107 122 142 150 145 150 148 148 157 150 160 177 167 161 150 146 145 140 151 144 163 179 205 231 233 235
297 299 348 30 12 18 26 6 15 10 44 353 4 60 64 70 89 88 92 112 118 120 123 126 125 123 113 126 135 130 127 125 127 126 128 135 152 173 191 209 212 232 243 252
294 329 326 35 10 354 15 28 354 20 351 347 35 44 50 61 78 83 85 98 113 111 113 118 110 109 109 111 110 118 116 113 116 133 146 160 180 191 192 203 225 242 254 261
287 310 57 55 15 331 330 31 12 1 3 18 41 56 48 58 81 87 95 98 104 106 107 112 115 117 121 123 125 127 131 137 135 131 117 159 188 195 205 226 246 260 271 276
333 318 196 24 357 337 339 19 8 4 15 44 69 71 44 52 77 86 95 99 101 102 105 109 111 112 117 121 120 120 120 122 102 41 53 216 225 213 229 256 277 281 285 285
331 354 14 6 337 335 288 27 350 359 17 28 79 68 33 57 87 91 96 101 103 104 104 105 107 113 117 114 111 111 100 85 135 212 223 227 241 257 270 279 285 293 297 297
347 360 47 355 335 326 44 333 327 3 26 48 59 61 70 86 86 89 92 93 102 107 105 102 102 109 104 100 94 75 65 57 51 43 24 345 320 310 306 301 303 304 301 301
340 10 1 355 353 47 313 321 5 29 43 61 69 76 83 86 86 87 90 94 95 99 96 92 89 87 84 80 73 68 62 53 47 36 19 357 340 328 317 314 311 309 306 304
21 17 339 358 2 22 44 51 41 47 58 73 75 76 81 82 83 86 87 88 88 88 88 84 80 77 76 68 60 52 44 37 24 13 1 350 342 333 326 322 320 318 316 316
228 3 1 23 43 51 55 56 64 70 72 78 81 82 84 85 84 84 85 83 83 82 79 73 67 63 61 57 49 37 30 26 23 15 12 8 8 3 356 352 346 340 334 329
74 4 25 28 23 30 53 68 70 75 79 77 81 79 81 80 77 77 76 73 70 67 65 63 57 56 55 51 46 41 38 37 33 28 23 17 11 5 357 354 349 344 339 333
76 340 6 2 9 38 60 66 77 84 82 80 80 82 83 80 78 75 72 69 66 65 63 60 54 52 51 47 42 36 31 27 22 15 8 1 355 353 352 342 336 331 326 324
74 356 55 30 34 59 73 78 85 86 83 81 78 79 81 83 79 78 75 71 65 62 59 56 52 48 45 38 32 25 23 18 12 4 359 354 350 346 337 334 339 335 333 330
198 158 87 110 75 80 84 85 85 85 84 80 78 79 84 85 84 76 69 65 64 63 61 57 53 48 43 35 28 22 19 13 9 6 3 359 356 352 349 347 343 338 337 337
151 143 130 123 121 114 104 103 99 88 84 85 83 83 85 82 76 72 72 69 65 60 57 51 46 42 35 27 21 17 15 14 12 9 6 3 1 358 356 353 351 349 346 343
132 132 129 129 125 123 119 104 93 88 87 89 88 85 80 78 79 77 71 64 54 50 47 42 40 39 31 25 24 21 19 16 13 12 9 7 6 4 0 358 355 353 351 349
151 141 146 140 135 124 111 97 90 89 86 88 84 80 76 72 71 66 60 54 50 50 49 42 40 34 27 23 22 21 19 17 16 14 12 10 7 4 1 357 355 353 351 350
160 154 155 143 133 122 109 102 98 94 89 84 87 89 85 76 69 66 62 58 52 47 43 41 37 27 24 22 22 20 17 15 14 12 11 9 5 3 360 357 354 351 349 347
153 151 144 142 131 124 113 106 102 98 93 92 99 92 82 75 70 66 59 50 46 43 41 34 27 21 22 21 19 17 16 15 14 11 9 6 4 1 357 353 350 347 345 342
152 153 150 146 134 128 126 114 104 101 97 92 81 78 76 72 65 56 48 38 38 38 35 30 23 22 21 19 17 17 15 13 11 8 4 2 359 356 353 350 347 344 340 337
152 147 147 146 143 138 128 116 112 113 108 105 101 93 82 77 70 58 48 40 43 38 34 26 18 19 20 19 16 14 12 9 5 2 359 355 353 352 349 345 341 339 336 334
158 155 154 151 149 145 136 127 123 113 112 112 98 84 78 74 64 48 40 39 38 31 26 19 18 21 18 14 12 10 6 3 359 355 355 353 349 345 343 342 341 339 336 335
159 158 154 147 146 141 132 126 124 123 120 106 96 90 80 68 57 48 42 42 36 25 21 22 23 19 15 11 8 4 359 355 355 353 349 346 344 341 340 340 340 339 337 336
166 161 159 154 152 148 147 145 141 134 128 122 114 98 79 62 47 41 38 33 25 19 26 24 19 14 9 5 0 357 356 354 349 346 344 341 339 338 338 338 340 341 338 334
170 169 167 166 164 161 162 153 146 144 139 129 113 89 64 47 38 33 28 22 25 31 25 19 13 8 4 359 357 355 353 351 349 345 343 341 339 338 337 339 339 337 335 333
175 174 171 165 166 169 166 160 158 153 146 141 124 94 66 55 42 28 22 29 31 25 18 12 6 1 358 356 355 355 354 352 349 346 343 341 340 339 337 335 333 334 333 330
180 179 177 174 174 173 170 166 164 162 150 138 114 74 62 32 16 8 21 27 22 14 9 3 358 356 357 356 354 352 350 348 347 344 343 341 339 335 332 330 328 330 331 327